This is the latest recevied weather packets stored in our database for station/object KV9E. If no packets are shown the sender has not sent any weather packets the latest 10 day(s).
| Time | Temp. | Humidity | Pressure | Rain* | Wind** | Luminosity | Snow |
|---|---|---|---|---|---|---|---|
| 1788483741 | 27.22° C | 76% | 1016.8 hPa | 0 mm | - | 0 W/m² | - |
| 1788483436 | 27.22° C | 75% | 1016.6 hPa | 0 mm | - | 0 W/m² | - |
| 1788483133 | 27.78° C | 72% | 1016.5 hPa | 0 mm | - | 0 W/m² | - |
| 1788482832 | 27.78° C | 70% | 1016.6 hPa | 0 mm | - | 0 W/m² | - |
| 1788482528 | 27.78° C | 70% | 1016.4 hPa | 0 mm | - | 0 W/m² | - |
| 1788482223 | 27.78° C | 69% | 1016.6 hPa | 0 mm | - | 0 W/m² | - |
| 1788481918 | 28.33° C | 69% | 1016.6 hPa | 0 mm | - | 0 W/m² | - |
| 1788481609 | 28.33° C | 68% | 1016.7 hPa | 0 mm | - | 0 W/m² | - |
| 1788481304 | 28.33° C | 69% | 1016.4 hPa | 0 mm | - | 0 W/m² | - |
| 1788480999 | 28.33° C | 69% | 1016.2 hPa | 0 mm | - | 1 W/m² | - |
| 1788480698 | 28.33° C | 68% | 1016.2 hPa | 0 mm | - | 1 W/m² | - |
| 1788480394 | 28.33° C | 69% | 1016.1 hPa | 0 mm | - | 2 W/m² | - |
| 1788480089 | 28.33° C | 68% | 1016.1 hPa | 0 mm | - | 4 W/m² | - |
| 1788479788 | 28.33° C | 71% | 1016.1 hPa | 0 mm | - | 6 W/m² | - |
| 1788479485 | 28.89° C | 72% | 1016.1 hPa | 0 mm | - | 9 W/m² | - |
| 1788479179 | 28.89° C | 71% | 1016 hPa | 0 mm | - | 13 W/m² | - |
| 1788478875 | 29.44° C | 70% | 1015.9 hPa | 0 mm | - | 17 W/m² | - |
| 1788478571 | 29.44° C | 70% | 1016.1 hPa | 0 mm | - | 21 W/m² | - |
| 1788478267 | 29.44° C | 70% | 1016 hPa | 0 mm | - | 24 W/m² | - |
| 1788477961 | 30° C | 68% | 1015.7 hPa | 0 mm | - | 28 W/m² | - |
| 1788477656 | 30° C | 67% | 1016 hPa | 0 mm | - | 30 W/m² | - |
| 1788477351 | 30.56° C | 62% | 1015.9 hPa | 0 mm | - | 33 W/m² | - |
| 1788477045 | 30.56° C | 66% | 1015.7 hPa | 0 mm | - | 37 W/m² | - |
| 1788476742 | 30.56° C | 66% | 1015.8 hPa | 0 mm | - | 44 W/m² | - |
| 1788476440 | 30.56° C | 64% | 1015.7 hPa | 0 mm | - | 49 W/m² | - |
* Rain latest hour (hover to see other rain measurements)
** Current wind speed in m/s (hover to see current wind gust speed)